This demonstration page uses our WeatherBlox Daily Observations layout. Learn more.

Left ArrowRight Arrow

40.92945, -100.16068

Hourly Observations for January 14, 2021

Temp ( °F °C ) Dew Point ( °F °C ) Humidity (%) Winds ( mph kmh ) Pressure ( in mb ) Visibility ( mi km ) Precip ( " mm )
12:15 am 00:15 Cloudy 45 7 37 2.5 73 73 NNW 39 63 29.81 1009 10 16.0934 0 0
12:35 am 00:35 Cloudy 43 6.2 34 1 70 70 NNW 29 46 29.81 1009 10 16.0934 0 0
12:55 am 00:55 Cloudy 42 5.7 33 0.7 71 71 NW 30 48 29.82 1010 10 16.0934 0 0
1:15 am 01:15 Cloudy 42 5.3 34 1 74 74 NW 17 28 29.82 1010 10 16.0934 0 0
1:35 am 01:35 Cloudy 42 5.5 32 0.1 69 69 NW 18 30 29.81 1010 10 16.0934 0 0
1:55 am 01:55 Cloudy 42 5.3 32 0 69 69 NW 21 33 29.82 1010 10 16.0934 0 0
2:15 am 02:15 Partly Cloudy 40 4.6 31 -0.5 70 70 NW 16 26 29.82 1010 10 16.0934 0 0
2:35 am 02:35 Clear 40 4.3 29 -1.5 66 66 WNW 17 28 29.85 1011 10 16.0934 0 0
2:55 am 02:55 Clear 39 4 29 -1.6 67 67 NW 17 28 29.87 1011 10 16.0934 0 0
3:15 am 03:15 Clear 38 3.5 29 -1.5 70 70 NW 16 26 29.86 1011 10 16.0934 0 0
3:35 am 03:35 Clear 37 2.8 30 -1.3 75 75 NW 20 31 29.87 1011 10 16.0934 0 0
3:55 am 03:55 Clear 37 2.8 30 -1.2 75 75 WNW 20 31 29.87 1011 10 16.0934 0 0
4:15 am 04:15 Clear 37 2.8 30 -1 76 76 WNW 21 33 29.88 1012 10 16.0934 0 0
4:35 am 04:35 Clear 37 3 28 -2 70 70 WNW 23 37 29.89 1012 10 16.0934 0 0
4:55 am 04:55 Clear 37 2.7 27 -2.8 67 67 NW 26 43 29.9 1013 10 16.0934 0 0
5:15 am 05:15 Clear 36 2.4 26 -3.5 65 65 NW 23 37 29.92 1013 10 16.0934 0 0
5:35 am 05:35 Clear 37 2.5 25 -4.1 62 62 WNW 21 33 29.93 1014 10 16.0934 0 0
5:55 am 05:55 Clear 37 2.6 24 -4.6 59 59 WNW 21 33 29.94 1014 10 16.0934 0 0
6:15 am 06:15 Clear 36 2.3 23 -4.8 60 60 WNW 20 31 29.94 1014 10 16.0934 0 0
6:35 am 06:35 Mostly Cloudy 36 2 23 -4.9 61 61 WNW 18 30 29.96 1014 10 16.0934 0 0
6:55 am 06:55 Cloudy 38 3.1 21 -6 52 52 NW 24 39 29.96 1014 10 16.0934 0 0
7:15 am 07:15 Cloudy 37 3 21 -6.1 52 52 NW 26 43 29.97 1015 10 16.0934 0 0
7:35 am 07:35 Cloudy 38 3.2 22 -5.8 52 52 NNW 35 56 29.98 1015 10 16.0934 0 0
7:55 am 07:55 Cloudy 37 2.5 22 -5.3 57 57 NNW 25 41 29.99 1016 10 16.0934 0 0
8:15 am 08:15 Partly Cloudy 36 2.1 23 -5.2 59 59 NW 24 39 30 1016 10 16.0934 0 0
8:35 am 08:35 Mostly Cloudy 36 2.4 23 -5.2 58 58 NW 23 37 29.99 1016 10 16.0934 0 0
8:55 am 08:55 Cloudy 38 3.1 20 -6.8 49 49 NW 25 41 29.99 1015 10 16.0934 0 0
9:15 am 09:15 Mostly Cloudy 38 3.5 17 -8.3 42 42 NW 29 46 29.99 1016 10 16.0934 0 0
9:35 am 09:35 Sunny 39 4.1 16 -9 38 38 NW 29 46 29.99 1015 10 16.0934 0 0
9:55 am 09:55 Mostly Cloudy 40 4.2 15 -9.4 37 37 NW 35 56 29.99 1015 10 16.0934 0 0
10:15 am 10:15 Partly Cloudy 40 4.2 16 -9.1 38 38 NW 32 52 29.99 1015 10 16.0934 0 0
10:35 am 10:35 Sunny 40 4.7 17 -8.2 39 39 NW 46 74 29.99 1016 10 16.0934 0 0
10:55 am 10:55 Sunny 42 5.3 13 -10.6 31 31 NW 43 69 29.98 1015 10 16.0934 0 0
11:15 am 11:15 Sunny 41 5 14 -9.8 34 34 NW 37 59 29.98 1015 10 16.0934 0 0
11:35 am 11:35 Sunny 40 4.6 16 -8.9 37 37 NW 36 57 29.98 1015 10 16.0934 0 0
12:55 pm 12:55 Sunny 43 6.1 9 -13 24 24 NW 35 56 29.93 1013 10 16.0934 0 0
1:15 pm 13:15 Sunny 44 6.4 6 -14.5 21 21 NW 37 59 29.92 1013 10 16.0934 0 0
1:35 pm 13:35 Sunny 43 6.2 6 -14.5 21 21 NNW 46 74 29.92 1013 7 11.26538 0 0
1:55 pm 13:55 Sunny 43 6.3 7 -13.9 22 22 NW 37 59 29.92 1013 10 16.0934 0 0
2:15 pm 14:15 Sunny 44 6.5 9 -12.9 24 24 NW 43 69 29.91 1013 10 16.0934 0 0
2:35 pm 14:35 Sunny 44 6.5 8 -13.3 23 23 NW 44 70 29.91 1013 10 16.0934 0 0
2:55 pm 14:55 Partly Cloudy 44 6.4 10 -12.3 25 25 NW 44 70 29.91 1013 10 16.0934 0 0
3:15 pm 15:15 Partly Cloudy 43 6.1 7 -13.9 22 22 NW 37 59 29.92 1013 10 16.0934 0 0
3:35 pm 15:35 Sunny 43 6 5 -15.1 20 20 NW 46 74 29.92 1013 10 16.0934 0 0
3:55 pm 15:55 Sunny 42 5.6 6 -14.5 22 22 NW 41 67 29.92 1013 10 16.0934 0 0
4:15 pm 16:15 Sunny 41 5.1 5 -14.9 22 22 NW 43 69 29.94 1014 10 16.0934 0 0
4:35 pm 16:35 Mostly Cloudy 41 5 6 -14.2 24 24 NW 45 72 29.95 1014 10 16.0934 0 0
4:55 pm 16:55 Partly Cloudy 39 4 6 -14.3 25 25 NW 38 61 29.98 1015 10 16.0934 0 0
5:15 pm 17:15 Partly Cloudy 38 3.1 11 -11.4 34 34 NNW 41 67 29.99 1015 10 16.0934 0 0
5:35 pm 17:35 Mostly Cloudy 38 3.6 9 -12.9 29 29 NW 44 70 29.98 1015 10 16.0934 0 0
5:55 pm 17:55 Partly Cloudy 38 3.1 10 -12.5 31 31 NW 41 67 30 1016 10 16.0934 0 0
6:15 pm 18:15 Clear 37 3 10 -12.2 32 32 NW 36 57 30 1016 10 16.0934 0 0
6:35 pm 18:35 Partly Cloudy 37 3 10 -12.5 31 31 NW 41 67 30 1016 10 16.0934 0 0
6:55 pm 18:55 Mostly Cloudy 37 2.7 11 -11.6 34 34 NW 28 44 29.99 1016 10 16.0934 0 0
7:15 pm 19:15 Cloudy 37 2.7 12 -10.9 36 36 NNW 35 56 30 1016 10 16.0934 0 0
7:35 pm 19:35 Cloudy 37 2.6 12 -11.2 36 36 NNW 32 52 30 1016 10 16.0934 0 0
7:55 pm 19:55 Cloudy 37 2.6 12 -11.2 36 36 NNW 30 48 30 1016 10 16.0934 0 0
8:15 pm 20:15 Cloudy 37 2.8 11 -11.5 34 34 NW 37 59 29.99 1016 10 16.0934 0 0
8:35 pm 20:35 Cloudy 37 2.5 12 -11.2 36 36 NW 32 52 29.99 1016 10 16.0934 0 0
8:55 pm 20:55 Cloudy 37 2.6 12 -10.9 37 37 NNW 39 63 29.99 1016 10 16.0934 0 0
9:15 pm 21:15 Cloudy 36 2.4 13 -10.3 39 39 NW 38 61 29.99 1016 10 16.0934 0 0
9:35 pm 21:35 Cloudy 37 2.6 12 -11.3 35 35 NW 35 56 29.97 1015 10 16.0934 0 0
9:55 pm 21:55 Cloudy 37 2.7 11 -11.6 34 34 NNW 38 61 29.97 1015 10 16.0934 0 0
10:15 pm 22:15 Cloudy 37 2.6 11 -11.6 35 35 NNW 26 43 29.97 1015 10 16.0934 0 0
10:35 pm 22:35 Cloudy 37 2.5 11 -11.5 35 35 NNW 28 44 29.96 1015 10 16.0934 0 0
10:55 pm 22:55 Cloudy 36 2.4 11 -11.5 35 35 NNW 44 70 29.96 1015 10 16.0934 0 0
11:15 pm 23:15 Mostly Cloudy 36 2.1 12 -11.3 37 37 NNW 39 63 29.97 1015 10 16.0934 0 0
11:35 pm 23:35 Cloudy 36 2.1 12 -11 38 38 NNW 45 72 29.98 1015 10 16.0934 0 0
11:55 pm 23:55 Cloudy 35 1.9 13 -10.5 40 40 NNW 40 65 29.97 1015 10 16.0934 0 0

Powered by AerisWeather